This demonstration page uses our WeatherBlox Daily Observations layout. Learn more.

Left ArrowRight Arrow

39.92423, -83.80882

Hourly Observations for September 25, 2022

Temp ( °F °C ) Dew Point ( °F °C ) Humidity (%) Winds ( mph kmh ) Pressure ( in mb ) Visibility ( mi km ) Precip ( " mm )
12:56 am 00:56 Clear 61 16.1 N/A N/A SW 7 11 29.81 1010 10 16 0.00 0.00
1:56 am 01:56 Clear 61 16.1 N/A N/A SSW 8 13 29.80 1009 10 16 0.00 0.00
2:56 am 02:56 Mostly Clear 61 16.1 N/A N/A SW 8 13 29.79 1009 10 16 0.00 0.00
3:56 am 03:56 Mostly Cloudy 62 16.7 62 16.7 100 100 WSW 8 13 29.77 1008 10 16 0.01 0.13
4:56 am 04:56 Cloudy 61 16.1 N/A N/A SW 3 6 29.74 1007 10 16 0.00 0.00
5:56 am 05:56 Partly Cloudy 61 16.1 N/A N/A S 6 9 29.70 1006 10 16 0.01 0.13
6:56 am 06:56 Mostly Cloudy 61 16.1 N/A N/A SW 10 17 29.70 1006 10 16 0.00 0.00
7:56 am 07:56 Cloudy with Light Rain 63 17.2 61 16.1 93 93 WSW 8 13 29.72 1006 10 16 0.01 0.13
8:56 am 08:56 Cloudy 63 17.2 61 16.1 93 93 WSW 13 20 29.72 1007 10 16 0.01 0.13
9:22 am 09:22 Partly Cloudy 64 18 61 16 88 88 WSW 12 19 29.71 1006 10 16 0.00 0.00
9:56 am 09:56 Mostly Sunny 66 18.9 58 14.4 75 75 W 15 24 29.72 1007 10 16 0.00 0.00
10:42 am 10:42 Mostly Cloudy 66 19 57 14 73 73 W 12 19 29.72 1006 10 16 0.00 0.00
10:56 am 10:56 Mostly Cloudy 68 20 54 12.2 61 61 W 18 30 29.72 1007 10 16 0.00 0.00
11:07 am 11:07 Mostly Cloudy 70 21 52 11 53 53 W 14 22 29.70 1006 10 16 0.00 0.00
11:56 am 11:56 Mostly Cloudy 69 20.6 53 11.7 57 57 W 17 28 29.72 1007 10 16 0.00 0.00
12:56 pm 12:56 Cloudy 69 20.6 52 11.1 54 54 W 17 28 29.73 1007 10 16 0.00 0.00
1:56 pm 13:56 Cloudy 67 19.4 52 11.1 59 59 WNW 15 24 29.75 1007 10 16 0.00 0.00
2:56 pm 14:56 Cloudy 67 19.4 52 11.1 59 59 W 17 28 29.74 1007 10 16 0.00 0.00
3:56 pm 15:56 Cloudy 67 19.4 54 12.2 63 63 WNW 14 22 29.75 1008 10 16 0.00 0.00
4:56 pm 16:56 Cloudy 66 18.9 53 11.7 63 63 W 14 22 29.76 1008 10 16 0.00 0.00
5:56 pm 17:56 Cloudy 66 18.9 52 11.1 61 61 W 10 17 29.77 1008 10 16 0.00 0.00
6:56 pm 18:56 Mostly Cloudy 65 18.3 51 10.6 61 61 W 13 20 29.78 1008 10 16 0.00 0.00
7:56 pm 19:56 Clear 61 16.1 52 11.1 72 72 W 8 13 29.79 1009 10 16 0.00 0.00
8:56 pm 20:56 Clear 57 13.9 54 12.2 89 89 W 6 9 29.80 1009 10 16 0.00 0.00
9:56 pm 21:56 Clear 55 12.8 55 12.8 100 100 WSW 6 9 29.80 1009 10 16 0.00 0.00
10:56 pm 22:56 Cloudy 59 15 55 12.8 87 87 WSW 6 9 29.79 1009 10 16 0.00 0.00
11:56 pm 23:56 Mostly Cloudy 59 15 55 12.8 87 87 W 8 13 29.79 1009 10 16 0.00 0.00

Powered by AerisWeather